Location: Gradaro
(45.0833°N, 10.8833°E)
Time: 22:02:01
(UTC+00:00)

Atlas Centaur 2 - Pass Details

Date: 29 November 2020
Orbit: 459 x 1309 km, 30.4° (Epoch: 19 January)

Event Time Altitude Azimuth Distance (km) Brightness Sun altitude
Exits shadow 04:27:19 13° 218° (SW) 2,523 4.4 -21.5°
Maximum altitude 04:30:53 19° 182° (S) 1,957 4.2 -20.9°
Drops below altitude 10° 04:34:45 10° 138° (SE) 2,326 5.2 -20.2°
Sets 04:37:37 0° 120° (ESE) 3,093 6.5 -19.8°
